Location: Innsbruck
(47.2657°N, 11.3914°E)
Time: 13:29:33
(UTC+02:00)

Nauka - Pass Details

Date: 21 September 2021
Orbit: 417 x 423 km, 51.6° (Epoch: 24 October)

Event Time Altitude Azimuth Distance (km) Brightness Sun altitude
Rises 21:38:08 0° 275° (W) 2,364 ? -24.2°
Reaches altitude 10° 21:40:19 10° 284° (WNW) 1,502 ? -24.5°
Enters shadow 21:42:43 33° 321° (NW) 732 ? -24.9°
